Regional Weather Roundup
Issued by NWS

Home | Current Version | Previous Version | Graphics & Text | Print | Product List | Glossary Off
Versions: 1 2 3 4 5 6 7 8 9 10 11 12 13 14 15 16 17 18 19 20 21 22 23 24 25 26 27 28 29 30 31 32 33 34 35 36 37 38 39 40 41 42 43 44 45 46 47 48 49 50

000
ASUS43 KLOT 180908
RWRIL

ILLINOIS REGIONAL WEATHER ROUNDUP
NATIONAL WEATHER SERVICE CHICAGO/ROMEOVILLE IL
400 AM CDT FRI AUG 18 2017

NOTE: "FAIR" INDICATES FEW OR NO CLOUDS BELOW 12,000 FEET WITH NO
SIGNIFICANT WEATHER AND/OR OBSTRUCTIONS TO VISIBILITY.

* THESE STATIONS ARE NOT UNDER NWS QUALITY CONTROL. THEY ALSO MAY NOT
  REPORT WEATHER SUCH AS PRECIPITATION OR FOG.

ILZ001-002-007-009-015-016-024-181000-
NORTHWEST ILLINOIS

CITY           SKY/WX    TMP DP  RH WIND       PRES   REMARKS
MOLINE         CLEAR     66  61  84 W6        29.86R
STERLING*      CLEAR     64  62  93 W7        29.83F
SAVANNA*       CLEAR     65  63  90 W8        29.83S
$$

ILZ003-004-008-010-011-017-018-181000-
NORTH CENTRAL ILLINOIS

CITY           SKY/WX    TMP DP  RH WIND       PRES   REMARKS
ROCKFORD       PTCLDY    64  62  93 W6        29.82R
FREEPORT*      CLEAR     62  61  97 W5        29.83F
ROCHELLE*      CLEAR     63  62  97 W6        29.83S
DE KALB*       CLEAR     65  63  94 W9        29.82S
PERU*          CLEAR     64  62  93 W6        29.83S
$$

ILZ005-006-012>014-019>023-181000-
NORTHEAST ILLINOIS

CITY           SKY/WX    TMP DP  RH WIND       PRES   REMARKS
CHICAGO-OHARE  PTCLDY    69  61  75 W12       29.78R
CHICAGO-MIDWAY PTCLDY    70  64  81 W10       29.79R
AURORA         CLEAR     64  63  96 W7        29.81S
LANSING*       CLEAR     68  62  80 W7        29.80S
JOLIET*        CLEAR     67  65  93 W6        29.82R
WAUKEGAN       CLEAR     66  62  87 VRB6      29.76R
DUPAGE AIRPORT CLEAR     66  64  93 W9        29.79S
KANKAKEE*      CLEAR     64  64 100 W7        29.83R
WHEELING       PTCLDY    68  64  87 W8        29.79S
MORRIS*        CLEAR     65  63  93 W7        29.81S
ROMEOVILLE*    CLEAR     65  62  89 W8        29.81S
NORTHERLY ISL    N/A     71  61  70 SW10        N/A
$$

LMZ740>746-181000-
SOUTHERN LAKE MICHIGAN

STATION/POSITION SKY/WX   TEMP    WIND        PRES    VSBY  WAVE
                          AIR SEA DIR/SP/G                  HT/PER
                          (F)     (DEG/KT/KT) (MB)    (MI)  (FT/S)
SOUTHERN BUOY              69 71  310/ 19/ 21 1006.5R         4/ 5
WILMETTE HARBOR            69 72  280/ 14/ 17   N/A           1/ 3
HARRISON CRIB              71     270/ 15/ 17   N/A
CALUMET HARBOR             70     240/  5/ 12 1008.1R
BURNS HARBOR               72     270/ 15/ 20 1009.1R
MICHIGAN CITY              71     260/ 18/ 20   N/A
MICHIGAN CITY 6N           72 74  270/ 16/ 19   N/A           4/ 4
ST. JOSEPH                 72 73  300/ 17/ 23 1007.8          5/ 5
$$

ILZ025>027-034>036-040-047-049-050-058-095>099-181000-
WEST-CENTRAL ILLINOIS

CITY           SKY/WX    TMP DP  RH WIND       PRES   REMARKS
QUINCY         CLEAR     66  60  81 W5        29.90S
GALESBURG*     CLEAR     63  62  96 W6        29.89R
MACOMB*        CLEAR     63  62  96 W7        29.90S
JACKSONVILLE*  CLEAR     62  60  93 SW6       29.90R
PITTSFIELD*    CLEAR     66  61  84 W3        29.92S
$$

ILZ028>032-037-038-041>044-048-051>054-059>061-181000-
CENTRAL ILLINOIS

CITY           SKY/WX    TMP DP  RH WIND       PRES   REMARKS
PONTIAC        CLEAR     66  65  98 W8        29.85S
BLOOMINGTON    CLEAR     64  61  90 W6        29.88R
DECATUR        CLOUDY    68  63  84 W6        29.88R
PEORIA         CLEAR     67  64  90 W6        29.87R
LACON*         CLEAR     65  63  91 W3        29.84S
LINCOLN*       CLEAR     69  64  85 CALM      29.87S
SPRINGFIELD    CLEAR     64  62  93 W7        29.89R
TAYLORVILLE    CLOUDY    63  63  97 W3        29.89R
$$

ILZ033-039-045-046-055>057-062-063-181000-
EAST-CENTRAL ILLINOIS

CITY           SKY/WX    TMP DP  RH WIND       PRES   REMARKS
CHAMPAIGN      CLEAR     64  62  93 W5        29.87R
RANTOUL*       CLEAR     67  65  91 W6        29.86R
MATTOON        CLOUDY    67  66  97 SW6       29.86S
PARIS*         CLEAR     65  64  99 W6        29.87S
$$

ILZ079-100>102-181000-
SOUTHWEST ILLINOIS

CITY           SKY/WX    TMP DP  RH WIND       PRES   REMARKS
ALTON          CLOUDY    66  63  92 W6        29.91S
BELLEVILLE     CLEAR     68  63  84 SW3       29.91S
CAHOKIA*       CLEAR     70  63  78 W5        29.91R
SPARTA*        CLEAR     66  64  92 CALM      29.93R
$$

ILZ064>066-069>071-074>076-080>082-084>086-088>090-092>094-181000-
SOUTH-CENTRAL ILLINOIS

CITY           SKY/WX    TMP DP  RH WIND       PRES   REMARKS
CARBONDALE     CLEAR     66  66 100 W6        29.92R
CAIRO*         CLEAR     69  69  98 CALM      29.93S
EFFINGHAM*     CLEAR     65  65  99 SW3       29.90R
MARION         CLEAR     70  70 100 CALM      29.92S
MT. VERNON     CLEAR     63  63 100 CALM      29.90S FOG
CENTRALIA*     CLEAR     66  65  97 W7        29.90R
SALEM*         CLEAR     67  64  89 W5        29.90R
METROPOLIS*    CLEAR     72  71  97 CALM      29.93S
$$

ILZ067-068-072-073-078-083-087-091-181000-
SOUTHEAST ILLINOIS

CITY           SKY/WX    TMP DP  RH WIND       PRES   REMARKS
LAWRENCEVILLE  CLEAR     69  65  86 W5        29.87S
FLORA*         CLEAR     69  65  88 W6        29.89S
FAIRFIELD*     CLEAR     67  66  95 CALM      29.88S
HARRISBURG*    CLEAR     67  66  99 CALM      29.91S
ROBINSON*      CLEAR     65  64  96 W7        29.88R
CARMI*         CLEAR     66  65  97 SW3       29.89S
$$

ABBREVIATIONS USED IN REMARKS
   TC - TEMPERATURE IN CELSIUS
  WCI - WIND CHILL INDEX
   HX - HEAT INDEX
  VSB - VISIBILITY
$$





USA.gov is the U.S. government's official web portal to all federal, state and local government web resources and services.